Regional Weather Roundup
Issued by NWS Burlington, VT

Home | Current Version | Previous Version | Text Only | Print | Product List | Glossary On
Versions: 1 2 3 4 5 6 7 8 9 10 11 12 13 14 15 16 17 18 19 20 21 22 23 24 25 26 27 28 29 30 31 32 33 34 35 36 37 38 39 40 41 42 43 44 45 46 47 48 49 50
000
ASUS41 KBTV 201930
RWRBTV
VERMONT REGIONAL WEATHER ROUNDUP
NATIONAL WEATHER SERVICE BURLINGTON VT
200 PM EST SAT DEC 20 2014

NOTE: "FAIR" INDICATES FEW OR NO CLOUDS BELOW 12,000 FEET WITH NO
SIGNIFICANT WEATHER AND/OR OBSTRUCTIONS TO VISIBILITY.

* THESE REPORTS ARE NOT UNDER NWS QUALITY CONTROL AND/OR DO NOT
  REPORT WEATHER SUCH AS PRECIPITATION AND FOG.

VTZ001>019-202000-
_____VERMONT_____


CITY           SKY/WX    TMP DP  RH WIND       PRES   REMARKS
BURLINGTON     PTCLDY    26  15  63 CALM      30.29S
MONTPELIER     CLEAR     25  15  66 CALM      30.26S
MORRISVILLE    CLEAR     27  15  61 CALM      30.27S
ST. JOHNSBURY*   N/A     27  16  63 MISG      30.24F
LYNDONVILLE*   FAIR      26  15  62 CALM      30.24S
MIDDLEBURY*    FAIR      25  15  66 CALM      30.27S
RUTLAND*       CLEAR     28  16  59 N6        30.24S
SPRINGFIELD    CLEAR     31  15  52 CALM      30.26S
HIGHGATE*      FAIR      17  13  84 CALM      30.32R
NEWPORT*       FAIR      19  14  79 CALM      30.26S
BENNINGTON     CLOUDY    28  18  66 W5        30.24S
GALLUP MILLS*    N/A     27 N/A N/A MISG        N/A
UNION VILLAGE*   N/A     30 N/A N/A MISG        N/A
MT. MANSFIELD*   N/A     32 N/A N/A CALM        N/A

_____LAKE CHAMPLAIN_____


CITY           SKY/WX    TMP DP  RH WIND       PRES   REMARKS
BURTON ISLAND*   N/A     25  19  80 NW2         N/A
COLCHESTER RF*   N/A     25  19  80 NE6         N/A

$$

NYZ007-026>031-035-052-083-202000-
_____NORTHERN NEW YORK_____


CITY           SKY/WX    TMP DP  RH WIND       PRES   REMARKS
PLATTSBURGH    PTCLDY    22  17  81 E5        30.30F
SARANAC LAKE   CLEAR     24  20  84 CALM      30.17S
MASSENA        CLEAR     20  16  84 NE5       30.33S
OGDENSBURG*    CLEAR     27  18  69 E3        30.29F
POTSDAM*       CLEAR     25  18  74 CALM      30.28F
STARK FALLS*     N/A     28 N/A N/A CALM        N/A
WATERTOWN      CLEAR     31  15  52 CALM      30.27F
FT DRUM        CLEAR     24  12  61 SW1       30.25F
ALBANY         CLOUDY    29  18  63 W3        30.29F
GLENS FALLS    PTCLDY    29  18  63 SE6       30.28S

$$
NHZ002-005-011-202000-
_____NEW HAMPSHIRE_____


CITY           SKY/WX    TMP DP  RH WIND       PRES   REMARKS
LEBANON        CLEAR     30  15  53 CALM      30.26R
KEENE          FAIR      36  16  44 SE3       30.24S
MT WASHINGTON  PTCLDY    25   0  33 E15         N/A  WCI  12
PLYMOUTH       FAIR      33  22  64 SE3       30.26R
WHITEFIELD     CLEAR     26  19  74 CALM      30.23S

$$

_____REGIONAL QUEBEC LOCATIONS_____


CITY           SKY/WX    TMP DP  RH WIND       PRES   REMARKS
MONTREAL       PTCLDY    18  10  73 N6        30.34S
QUEBEC CITY    MOCLDY    16  12  86 VRB2      30.34
SHERBROOKE     CLEAR     16  14  93 CALM      30.27S

_____REGIONAL ONTARIO LOCATIONS_____


CITY           SKY/WX    TMP DP  RH WIND       PRES   REMARKS
OTTAWA         PTCLDY    21  12  68 VRB2      30.30F

______KEY______
VSB  - VISIBILITY IN MILES
WCI  - WIND CHILL INDEX
HX   - HEAT INDEX
$$
NNNN



USA.gov is the U.S. government's official web portal to all federal, state and local government web resources and services.